Weather Roundup
Issued by NWS Chicago, IL

Home | Current Version | Previous Version | Graphics & Text | Print | Product List | Glossary On
Versions: 1 2 3 4 5 6 7 8 9 10 11 12 13 14 15 16 17 18 19 20 21 22 23 24 25 26 27 28 29 30 31 32 33 34 35 36 37 38 39 40 41 42 43 44 45 46 47 48 49 50
000
NZUS59 KLOT 291912
HRRLOT

CHICAGO AREA WEATHER ROUNDUP
NATIONAL WEATHER SERVICE CHICAGO/ROMEOVILLE IL
200 PM CDT SUN MAR 29 2015

NOTE: "FAIR" INDICATES FEW OR NO CLOUDS BELOW 12,000 FEET WITH NO
SIGNIFICANT WEATHER AND/OR OBSTRUCTIONS TO VISIBILITY.

* THESE STATIONS ARE NOT UNDER NWS QUALITY CONTROL. THEY ALSO MAY NOT
  REPORT WEATHER SUCH AS PRECIPITATION OR FOG.

ILZ005-006-012>014-019>023-292000-
NORTHEAST ILLINOIS

CITY           SKY/WX    TMP DP  RH WIND       PRES   REMARKS
OHARE          DRIZZLE   35  28  75 SW21G35   29.87S WCI  24
MIDWAY         CLOUDY    37  29  72 S20G32    29.89F
AURORA         CLOUDY    36  28  73 S18G24    29.89F
LANSING*       CLOUDY    35  28  75 S22G29    29.91F WCI  23
JOLIET*        DRIZZLE   37  31  77 S14G20    29.90F
WAUKEGAN       CLOUDY    34  30  85 S22G38    29.82F WCI  22
DUPAGE AIRPORT CLOUDY    34  29  82 S17G29    29.87F WCI  23
WHEELING       CLOUDY    35  29  78 S22G36    29.88F WCI  23
KANKAKEE*      CLOUDY    36  31  82 S21G26    29.92F
MORRIS*        CLOUDY    36  29  76 S18G29    29.90F
LEWIS AIRPORT* CLOUDY    35  28  78 S23G31    29.88F WCI  23
NORTHERLY IS     N/A     36  28  73 S23         N/A
$$

WIZ051-052-058>065-066-070>072-292000-
SOUTHEAST WISCONSIN

CITY           SKY/WX    TMP DP  RH WIND       PRES   REMARKS
MILWAUKEE      CLOUDY    34  29  82 SW22G37   29.77F WCI  22
KENOSHA*       CLOUDY    34  30  85 SW23G32   29.81F WCI  22
RACINE*        CLOUDY    35  29  78 SW24G31   29.81F WCI  23
BURLINGTON     CLOUDY    33  29  86 SW15      29.79F WCI  23
WAUKESHA       CLOUDY    32  28  86 S16G26    29.76F WCI  21
WEST BEND      CLOUDY    32  30  93 S16G24    29.71F WCI  21
$$

INZ001>003-010>013-019-020-292000-
NORTHWEST INDIANA

CITY           SKY/WX    TMP DP  RH WIND       PRES   REMARKS
GARY*          DRIZZLE   36  27  69 S20G31    29.92F
MICHIGAN CITY* NOT AVBL
RENSSELAER*    NOT AVBL
VALPARAISO     LGT RAIN  35  29  78 S20G29    29.96R WCI  24
$$

LMZ740>746-292000-
SOUTHERN LAKE MICHIGAN

STATION/POSITION TIME  SKY/WX   TEMP WIND        PRES    VSBY
                                AIR  DIR/SP/G
                 (UTC)          (F)  (DEG/KT/KT) (MB)    (MI)
HARRISON CRIB    1800            36  200/ 38/ 45   N/A
BURNHAM HARBOR   1900            36  210/ 20/ 32   N/A
CALUMET HARBOR   1800            38  200/ 19/ 26 1012.9R
BURNS HARBOR     1804            37  180/ 18/ 26 1013.5F
MICHIGAN CITY    1800            37  160/ 22/ 28   N/A
$$

ABBREVIATIONS USED IN REMARKS
   TC - TEMPERATURE IN CELSIUS
  WCI - WIND CHILL INDEX
   HX - HEAT INDEX
  VSB - VISIBILITY
$$



USA.gov is the U.S. government's official web portal to all federal, state and local government web resources and services.